sat.trackr.live / text

‹ back to catalog

STARLINK-3732

NORAD 52126 · 2022-029AQ

PAYLOAD ACTIVE UNKNOWN

§ Identity

Operator
Country
US
Launch date
2022-03-19
Launch site
AFETR
Launch vehicle
Mass (kg)
RCS (m²)

Purposes: comms

External: N2YO · Heavens-Above · Gunter

§ Orbital elements

Epoch: 2026-05-25T03:19:04.575360Z

Period
95.44 min
Inclination
53.2130°
Eccentricity
0.0001421
Mean motion
15.08850292 rev/d
Perigee alt
538.7 km
Apogee alt
540.7 km
Semi-major
6,917.8 km
B*
-1.4678e-4
RAAN
85.9295°
Arg perigee
87.6558°
Mean anomaly
272.4596°
Rev number
23,246

§ Raw data

STARLINK-37321 52126U 22029AQ  26145.13824740 -.00002624  00000+0 -14678-3 0  99922 52126  53.2130  85.9295 0001421  87.6558 272.4596 15.08850292232469

JSON: /api/v1/satellites/52126 · /tle

For live sub-satellite position, see the globe view (requires WebGL).

§ Visibility from observer

Set your observer location to see the next 7 days of passes ≥ 10°. The values pass through the URL so the page stays shareable.

No JS? Fill the form by hand. The geolocation button needs JavaScript.